Home   Weather   Zabrze   Past weeks

Flag for Poland Past Weather in Zabrze, Poland — Yesterday and Last 2 Weeks

Now
52 °F

Clear.


Feels Like: 46 °F
Forecast: 31 / 47 °F
Wind: 21 mph from Southwest

Location: Katowice Airport

Current Time: Feb 24, 2017 at 12:49:22 am

Latest Report: Feb 24, 2017 at 12:00 am


Visibility: 10 mi

Pressure: 29.30 "Hg

Humidity: 50%

Dew Point: 34 °F

Location of ZabrzeLocation

Past Weather in Zabrze — Graph

°F

Zabrze Temperature Yesterday

Maximum temperature yesterday: 54 °F (at 10:00 pm)
Minimum temperature yesterday: 37 °F (at 2:00 am)
Average temperature yesterday: 44 °F

High & Low Weather Summary for the Past Weeks

 TemperatureHumidityPressure
High54 °F (Feb 23, 10:00 pm)100% (Feb 14, 11:30 pm)30.63 "Hg (Feb 14, 11:30 pm)
Low14 °F (Feb 11, 7:00 am)32% (Feb 15, 3:30 pm)29.30 "Hg (Feb 23, 10:00 pm)
Average31 °F83%30.21 "Hg
* Reported Feb 8 11:00 pm — Feb 23 11:30 pm, Zabrze, Weather by CustomWeather, © 2017

Note: Actual official high and low records may vary slightly from our data, if they occured in-between our weather recording intervals... More about our weather records

Advertising

Zabrze Weather History for the Previous 24 Hours

Scroll right to see more
 ConditionsComfort  
Time TempWeatherWind HumidityBarometerVisibility
11:30 pm
Thu, Feb 23
52 °FClear.21 mph50%29.30 "Hg10 mi
11:00 pm54 °FClear.22 mph47%29.30 "Hg10 mi
10:30 pm54 °FClear.20 mph47%29.30 "Hg10 mi
10:00 pm54 °FClear.18 mph47%29.30 "Hg10 mi
9:30 pm52 °FClear.16 mph54%29.33 "Hg10 mi
9:00 pm52 °FClear.13 mph54%29.33 "Hg10 mi
8:30 pm50 °FClear.12 mph58%29.36 "Hg10 mi
8:00 pm50 °FClear.14 mph62%29.36 "Hg10 mi
7:30 pm48 °FClear.16 mph66%29.36 "Hg10 mi
7:00 pm48 °FClear.14 mph71%29.39 "Hg10 mi
6:30 pm48 °FClear.15 mph76%29.39 "Hg10 mi
6:00 pm46 °FClear.12 mph82%29.42 "Hg10 mi
5:30 pm46 °FPassing clouds.10 mph87%29.42 "HgN/A
5:00 pm46 °FLight rain. Partly sunny.12 mph87%29.45 "HgN/A
4:30 pm46 °FSunny.12 mph87%29.47 "Hg10 mi
4:00 pm46 °FBroken clouds.15 mph87%29.47 "HgN/A
3:30 pm46 °FLight rain. Broken clouds.17 mph87%29.50 "Hg4 mi
3:00 pm45 °FLight rain. Fog.10 mph93%29.53 "Hg3 mi
2:30 pm43 °FLight rain. Broken clouds.7 mph93%29.53 "Hg4 mi
2:00 pm43 °FLight rain. Mostly cloudy.7 mph93%29.56 "Hg4 mi
1:30 pm43 °FLight rain. Fog.8 mph93%29.56 "Hg2 mi
1:00 pm43 °FLight rain. More clouds than sun.9 mph93%29.59 "Hg5 mi
12:30 pm43 °FLight rain. Fog.10 mph93%29.59 "Hg2 mi
12:00 pm43 °FLight rain. Fog.9 mph93%29.62 "Hg2 mi
11:30 am43 °FLight rain. Broken clouds.12 mph87%29.62 "HgN/A
11:00 am43 °FLight rain. Broken clouds.18 mph76%29.62 "HgN/A
10:30 am41 °FPartly sunny.17 mph87%29.62 "HgN/A
10:00 am41 °FOvercast.21 mph81%29.62 "HgN/A
9:30 am41 °FBroken clouds.20 mph87%29.59 "HgN/A
9:00 am41 °FLight rain. Broken clouds.18 mph87%29.59 "HgN/A
8:30 am39 °FLight rain. Broken clouds.18 mph93%29.59 "HgN/A
8:00 am39 °FLight rain. Broken clouds.18 mph93%29.59 "HgN/A
7:30 am39 °FPassing clouds.21 mph87%29.59 "HgN/A
7:00 am39 °FPassing clouds.21 mph87%29.59 "HgN/A
6:30 am39 °FLight rain. Partly cloudy.21 mph87%29.59 "HgN/A
6:00 am39 °FLight rain. Partly cloudy.22 mph87%29.59 "Hg4 mi
5:30 am39 °FLight rain. Mostly cloudy.22 mph87%29.59 "HgN/A
5:00 am39 °FLight rain. Overcast.21 mph81%29.59 "HgN/A
4:30 am39 °FPassing clouds.21 mph81%29.56 "HgN/A
4:00 am39 °FPassing clouds.21 mph87%29.56 "HgN/A
3:30 am39 °FPassing clouds.20 mph93%29.56 "HgN/A
3:00 am37 °FPassing clouds.15 mph100%29.56 "HgN/A
2:30 am39 °FMostly cloudy.10 mph93%29.56 "HgN/A
2:00 am37 °FPartly cloudy.14 mph93%29.56 "HgN/A
1:30 am39 °FSprinkles. Partly cloudy.14 mph93%29.56 "HgN/A
1:00 am39 °FSprinkles. Partly cloudy.12 mph93%29.56 "HgN/A
12:30 am39 °FSprinkles. Passing clouds.10 mph93%29.56 "HgN/A
12:00 am39 °FSprinkles. Passing clouds.14 mph93%29.56 "Hg6 mi
Weather by CustomWeather, © 2017

See weather overviewHow to use our weather pages